Location: Roland
(31.1349°N, 85.4372°W)
Time: 03:14:57
(UTC+00:00)

Vanguard 2 Rocket - Pass Details

Date: 03 December 2021
Orbit: 554 x 3324 km, 32.9° (Epoch: 16 January)

Event Time Altitude Azimuth Distance (km) Brightness Sun altitude
Exits shadow 06:53:41 16° 154° (SSE) 5,758 10.9 -69.6°
Drops below altitude 10° 06:56:36 10° 150° (SSE) 6,266 11.1 -69.0°
Sets 07:01:51 0° 144° (SE) 7,205 11.6 -68.0°
